TimeCDT,TemperatureF,Dew PointF,Humidity,Sea Level PressureIn,VisibilityMPH,Wind Direction,Wind SpeedMPH,Gust SpeedMPH,PrecipitationIn,Events,Conditions,WindDirDegrees,DateUTC
12:15 AM,70.7,51.1,50,30.10,10.0,Calm,Calm,-,N/A,,Overcast,0,2012-10-09 05:15:00
12:35 AM,70.3,50.9,50,30.10,10.0,Calm,Calm,-,N/A,,Overcast,0,2012-10-09 05:35:00
12:55 AM,70.5,51.1,50,30.08,10.0,Calm,Calm,-,N/A,,Overcast,0,2012-10-09 05:55:00
1:15 AM,70.5,51.3,50,30.07,10.0,Calm,Calm,-,N/A,,Overcast,0,2012-10-09 06:15:00
1:35 AM,70.3,51.4,51,30.07,10.0,Calm,Calm,-,N/A,,Overcast,0,2012-10-09 06:35:00
1:55 AM,70.0,51.8,52,30.06,10.0,Calm,Calm,-,N/A,,Overcast,0,2012-10-09 06:55:00
2:15 AM,69.8,51.8,53,30.06,10.0,Calm,Calm,-,N/A,,Overcast,0,2012-10-09 07:15:00
3:15 AM,69.1,53.1,57,30.05,10.0,WSW,3.5,-,N/A,,Overcast,250,2012-10-09 08:15:00
3:35 AM,68.9,52.9,57,30.04,10.0,West,3.5,-,N/A,,Overcast,260,2012-10-09 08:35:00
3:55 AM,67.8,52.7,58,30.04,10.0,West,4.6,-,N/A,,Scattered Clouds,260,2012-10-09 08:55:00
4:15 AM,67.3,53.1,60,30.04,10.0,WNW,3.5,-,N/A,,Scattered Clouds,290,2012-10-09 09:15:00
4:35 AM,67.8,52.7,58,30.03,10.0,Calm,Calm,-,N/A,,Overcast,0,2012-10-09 09:35:00
4:55 AM,67.5,52.9,59,30.03,10.0,Calm,Calm,-,N/A,,Mostly Cloudy,0,2012-10-09 09:55:00
5:15 AM,66.6,52.9,61,30.03,10.0,Calm,Calm,-,N/A,,Clear,0,2012-10-09 10:15:00
5:35 AM,66.6,53.1,62,30.03,10.0,Calm,Calm,-,N/A,,Clear,0,2012-10-09 10:35:00
5:55 AM,66.2,52.9,62,30.03,10.0,Calm,Calm,-,N/A,,Clear,0,2012-10-09 10:55:00
6:15 AM,66.0,53.1,63,30.03,10.0,Calm,Calm,-,N/A,,Mostly Cloudy,0,2012-10-09 11:15:00
6:35 AM,66.7,52.9,61,30.03,10.0,Calm,Calm,-,N/A,,Overcast,0,2012-10-09 11:35:00
7:15 AM,66.7,52.2,59,30.04,10.0,Calm,Calm,-,N/A,,Scattered Clouds,0,2012-10-09 12:15:00
7:35 AM,66.0,52.5,62,30.03,10.0,Calm,Calm,-,N/A,,Scattered Clouds,0,2012-10-09 12:35:00
7:55 AM,65.1,53.1,65,30.04,10.0,Calm,Calm,-,N/A,,Clear,0,2012-10-09 12:55:00
8:15 AM,66.6,53.2,62,30.04,10.0,Calm,Calm,-,N/A,,Clear,0,2012-10-09 13:15:00
8:35 AM,68.4,52.7,57,30.05,10.0,WNW,3.5,-,N/A,,Clear,300,2012-10-09 13:35:00
8:55 AM,69.4,52.7,55,30.06,10.0,Calm,Calm,-,N/A,,Clear,0,2012-10-09 13:55:00
9:15 AM,71.1,52.7,52,30.06,10.0,Calm,Calm,-,N/A,,Scattered Clouds,0,2012-10-09 14:15:00
9:35 AM,72.5,53.8,52,30.07,10.0,Calm,Calm,-,N/A,,Scattered Clouds,0,2012-10-09 14:35:00
9:55 AM,73.4,54.9,52,30.07,10.0,Calm,Calm,-,N/A,,Mostly Cloudy,0,2012-10-09 14:55:00
10:15 AM,74.7,55.8,52,30.07,10.0,Calm,Calm,-,N/A,,Overcast,0,2012-10-09 15:15:00
10:35 AM,76.3,58.1,53,30.07,10.0,Calm,Calm,-,N/A,,Overcast,0,2012-10-09 15:35:00
10:55 AM,78.4,60.8,55,30.07,10.0,SE,3.5,-,N/A,,Overcast,130,2012-10-09 15:55:00
11:15 AM,80.8,60.8,50,30.06,10.0,ESE,4.6,-,N/A,,Mostly Cloudy,110,2012-10-09 16:15:00
11:35 AM,83.3,63.7,51,30.05,7.0,SE,9.2,-,N/A,,Mostly Cloudy,140,2012-10-09 16:35:00
11:55 AM,84.7,64.8,51,30.03,5.0,SSE,11.5,-,N/A,,Haze,150,2012-10-09 16:55:00
12:15 PM,86.4,65.5,50,30.02,4.0,SE,13.8,20.7,N/A,,Haze,140,2012-10-09 17:15:00
12:35 PM,87.6,65.1,47,30.01,7.0,SE,10.4,24.2,N/A,,Clear,130,2012-10-09 17:35:00
12:55 PM,88.2,64.9,46,29.99,7.0,SE,12.7,21.9,N/A,,Clear,130,2012-10-09 17:55:00
1:15 PM,89.1,64.9,45,29.99,10.0,South,12.7,19.6,N/A,,Scattered Clouds,170,2012-10-09 18:15:00
1:35 PM,90.1,64.8,43,29.98,7.0,SSE,10.4,19.6,N/A,,Scattered Clouds,150,2012-10-09 18:35:00
1:55 PM,90.7,64.6,42,29.97,5.0,SSE,11.5,18.4,N/A,,Haze,160,2012-10-09 18:55:00
2:15 PM,91.4,65.1,42,29.96,7.0,SSE,12.7,19.6,N/A,,Scattered Clouds,160,2012-10-09 19:15:00
2:35 PM,90.3,65.1,43,29.94,7.0,SSE,4.6,-,N/A,,Scattered Clouds,150,2012-10-09 19:35:00
2:55 PM,92.1,64.6,40,29.93,7.0,ESE,5.8,18.4,N/A,,Scattered Clouds,120,2012-10-09 19:55:00
3:15 PM,93.2,63.5,37,29.93,7.0,South,12.7,18.4,N/A,,Scattered Clouds,170,2012-10-09 20:15:00
3:35 PM,94.3,62.6,35,29.92,7.0,SSE,12.7,26.5,N/A,,Scattered Clouds,150,2012-10-09 20:35:00
3:55 PM,93.6,63.5,37,29.91,7.0,ESE,10.4,19.6,N/A,,Scattered Clouds,120,2012-10-09 20:55:00
4:15 PM,94.1,64.4,37,29.90,7.0,ESE,12.7,16.1,N/A,,Mostly Cloudy,120,2012-10-09 21:15:00
4:35 PM,92.5,66.6,42,29.90,7.0,SE,15.0,18.4,N/A,,Mostly Cloudy,130,2012-10-09 21:35:00
4:55 PM,92.5,67.1,43,29.90,7.0,SE,15.0,-,N/A,,Mostly Cloudy,140,2012-10-09 21:55:00
5:15 PM,91.0,68.4,47,29.90,10.0,ESE,17.3,20.7,N/A,,Scattered Clouds,120,2012-10-09 22:15:00
5:35 PM,90.5,68.4,48,29.90,7.0,ESE,15.0,21.9,N/A,,Scattered Clouds,110,2012-10-09 22:35:00
5:55 PM,88.7,69.1,52,29.90,10.0,ESE,18.4,24.2,N/A,,Scattered Clouds,110,2012-10-09 22:55:00
6:15 PM,87.8,69.6,55,29.91,7.0,ESE,15.0,-,N/A,,Clear,110,2012-10-09 23:15:00
6:35 PM,86.2,70.3,59,29.92,7.0,ESE,19.6,-,N/A,,Clear,120,2012-10-09 23:35:00
6:55 PM,84.7,70.7,63,29.92,10.0,ESE,16.1,-,N/A,,Scattered Clouds,120,2012-10-09 23:55:00
7:15 PM,83.8,70.9,65,29.93,10.0,ESE,12.7,-,N/A,,Clear,110,2012-10-10 00:15:00
7:35 PM,83.3,71.2,67,29.93,10.0,ESE,15.0,-,N/A,,Scattered Clouds,110,2012-10-10 00:35:00
7:55 PM,82.8,71.6,69,29.94,10.0,ESE,15.0,-,N/A,,Mostly Cloudy,110,2012-10-10 00:55:00
8:15 PM,82.4,71.8,70,29.94,10.0,ESE,16.1,-,N/A,,Mostly Cloudy,120,2012-10-10 01:15:00
8:35 PM,81.5,71.8,72,29.96,10.0,ESE,10.4,17.3,N/A,,Scattered Clouds,110,2012-10-10 01:35:00
8:55 PM,80.8,72.1,75,29.96,10.0,ESE,12.7,-,N/A,,Clear,120,2012-10-10 01:55:00
9:15 PM,80.4,72.1,76,29.97,10.0,ESE,10.4,-,N/A,,Clear,120,2012-10-10 02:15:00
9:35 PM,79.9,72.3,78,29.97,10.0,ESE,8.1,-,N/A,,Clear,120,2012-10-10 02:35:00
9:55 PM,79.7,72.5,79,29.98,10.0,ESE,10.4,-,N/A,,Clear,120,2012-10-10 02:55:00
10:15 PM,79.7,72.7,79,29.99,10.0,ESE,9.2,-,N/A,,Clear,120,2012-10-10 03:15:00
10:35 PM,79.7,72.9,80,29.99,10.0,ESE,9.2,-,N/A,,Clear,120,2012-10-10 03:35:00
10:55 PM,79.3,72.9,80,29.99,10.0,ESE,9.2,-,N/A,,Clear,120,2012-10-10 03:55:00
11:15 PM,79.2,73.0,81,30.00,10.0,ESE,8.1,-,N/A,,Clear,120,2012-10-10 04:15:00
11:35 PM,79.0,73.2,82,30.00,10.0,SE,8.1,-,N/A,,Clear,130,2012-10-10 04:35:00
11:55 PM,78.8,73.2,83,30.00,10.0,SE,6.9,-,N/A,,Scattered Clouds,130,2012-10-10 04:55:00